Theta_e
320 318 323 324 325 325 324 322 326 325 326 327 332 342 343 336 333 334 334 334 340 344 342 343 347 350 352 352 350 348 345 344 343 343 342 341 340 339 339 338 338 337 336 336
323 322 325 326 325 325 325 323 328 330 332 328 331 333 336 337 332 332 333 335 339 345 344 344 347 350 352 350 347 346 344 344 343 343 342 342 341 339 339 338 338 337 336 335
327 327 324 323 321 325 328 328 331 333 329 329 334 338 336 334 332 333 332 337 345 348 345 344 348 351 351 349 348 346 344 343 342 344 343 341 341 340 339 339 338 337 335 334
329 325 328 322 328 330 335 340 339 338 334 332 329 332 335 331 332 333 335 340 348 346 345 346 350 351 350 349 348 347 343 341 342 342 343 343 342 340 339 339 337 337 336 335
327 326 326 332 342 343 343 335 336 337 337 337 334 334 334 337 332 332 334 338 348 347 346 347 347 347 346 347 348 346 344 343 341 341 342 342 342 340 339 339 336 337 337 336
326 324 327 339 338 335 338 334 334 335 337 336 338 338 335 345 346 334 332 341 349 348 346 346 346 347 346 346 345 344 344 342 341 341 342 341 339 338 338 337 337 335 333 334
319 321 325 335 333 332 336 330 330 334 335 337 337 337 342 345 344 341 342 346 349 348 346 347 347 347 346 344 343 344 343 342 341 341 340 339 337 337 336 334 334 334 334 333
321 322 325 331 331 337 331 327 330 332 334 337 336 337 341 344 344 342 341 341 343 342 341 342 344 346 343 342 341 342 341 339 338 337 336 334 335 336 336 334 333 333 332 332
333 331 328 330 328 326 325 328 330 334 334 335 336 336 335 341 342 342 340 339 340 341 343 344 343 344 341 339 339 338 336 334 334 335 335 336 335 335 334 333 332 334 333 332
329 331 330 330 327 325 325 326 326 328 330 330 333 334 334 334 340 340 339 338 336 340 339 339 341 341 341 340 339 338 337 336 336 335 335 334 333 332 333 334 334 333 333 333
327 323 324 329 326 325 325 327 328 329 329 328 328 332 332 331 335 340 338 339 337 338 340 340 341 341 341 340 339 338 336 335 334 333 333 331 330 329 328 328 328 330 332 332
322 321 326 325 324 324 328 327 325 326 326 328 331 330 332 332 331 339 338 337 336 336 336 336 337 337 336 335 335 334 333 332 332 331 331 330 329 328 327 326 326 325 326 328
322 325 324 325 325 324 327 325 326 328 327 327 327 328 329 337 333 339 335 333 332 333 334 333 332 331 331 330 330 330 329 329 330 330 330 329 328 326 326 326 325 324 324 324
322 325 324 324 324 324 324 325 328 328 327 328 329 327 330 329 331 331 332 333 333 332 331 331 330 330 331 331 330 330 329 328 327 327 326 327 327 327 326 326 325 325 324 324
325 323 321 321 321 321 321 325 327 328 329 327 329 329 330 330 329 330 330 329 329 330 330 331 329 327 330 333 332 331 330 329 329 328 327 327 327 327 327 326 326 326 326 326
320 320 321 322 322 323 324 326 326 326 327 328 328 328 329 328 328 327 328 326 323 321 322 323 323 323 325 329 332 332 332 332 331 330 330 329 328 327 327 327 326 326 325 326
316 322 324 323 324 325 324 323 323 324 326 327 326 324 323 323 323 321 319 319 319 319 320 320 319 320 321 322 323 323 323 324 327 329 330 331 330 329 328 327 327 326 326 325
321 322 322 323 323 323 324 323 323 322 322 321 320 320 320 320 320 319 318 318 317 316 316 316 317 318 319 320 320 319 319 319 320 322 324 327 328 328 327 327 327 326 326 323
322 324 323 321 320 322 324 324 323 322 321 320 318 317 317 317 317 316 315 315 314 313 313 314 314 314 314 315 315 316 316 317 317 318 319 322 325 326 326 326 326 325 322 316
320 321 322 321 322 322 321 321 320 319 318 317 316 315 314 314 315 315 313 312 312 312 314 314 316 317 318 318 317 316 315 315 315 318 319 320 323 323 323 322 320 317 316 316
319 319 321 321 321 320 319 318 317 316 316 315 314 312 312 312 313 312 311 312 312 312 313 314 315 316 317 317 317 316 317 316 316 318 319 320 321 320 317 316 315 315 314 315
317 319 319 319 318 317 317 317 315 313 313 312 312 311 311 310 311 312 313 313 313 313 312 312 314 315 315 315 315 314 315 315 315 314 315 316 315 314 313 314 314 314 314 314
315 316 318 318 318 317 315 314 313 313 312 312 311 311 310 309 311 312 313 313 313 312 312 312 313 313 313 314 312 312 313 313 313 313 313 313 313 313 313 313 313 312 311 311
316 317 317 318 317 315 313 313 313 312 312 312 312 312 311 312 312 312 312 311 310 311 311 311 312 312 312 311 311 311 310 311 311 311 311 311 311 311 311 312 311 310 309 309
316 317 317 317 315 314 313 313 312 312 312 311 312 312 312 312 312 311 310 309 309 309 310 310 310 310 310 310 311 311 311 311 310 310 309 309 309 309 310 309 309 309 308 307
315 315 316 316 317 316 314 314 312 312 311 311 311 311 311 311 311 310 309 309 308 307 307 308 308 308 308 308 309 308 309 309 308 308 308 308 307 307 307 306 304 303 302 302
316 317 317 315 317 316 316 314 313 313 313 312 312 312 311 310 310 309 309 309 309 308 308 307 307 307 308 308 308 308 308 308 308 308 308 307 306 305 305 304 303 302 301 301
Wind_Speed
3 4 2 2 4 4 3 5 5 4 7 9 9 13 10 3 4 6 5 5 6 6 7 14 16 17 17 17 17 16 16 16 15 13 12 12 10 10 10 10 8 7 7 8
3 7 6 1 3 4 2 3 1 1 5 7 6 4 7 11 8 6 7 8 8 8 7 13 18 20 21 19 18 15 13 15 13 13 12 12 13 12 11 12 10 10 11 11
3 3 4 4 3 3 2 2 5 3 6 6 5 7 11 9 9 10 9 10 10 10 12 17 23 24 22 20 17 14 10 12 13 14 15 13 14 15 16 16 15 13 13 14
3 2 2 5 3 3 2 12 13 10 11 10 9 7 8 8 11 12 10 9 7 7 13 20 21 21 19 17 16 12 11 11 12 15 14 13 13 16 18 18 18 18 18 17
3 3 4 3 6 5 4 2 9 9 13 10 8 7 5 4 4 5 5 6 7 11 18 22 22 18 16 17 15 15 14 12 12 15 16 12 10 10 12 18 17 18 14 16
3 3 5 1 7 6 4 3 8 7 9 9 6 5 4 13 8 7 10 12 9 13 15 18 17 17 17 14 13 14 14 11 11 11 9 8 6 7 9 10 14 11 15 15
3 3 1 3 13 8 4 4 9 5 5 6 4 3 12 10 8 9 7 3 15 20 21 21 18 17 15 15 15 13 12 11 10 9 8 7 6 6 6 7 9 11 8 11
1 2 2 6 3 4 3 4 6 8 5 4 5 7 5 7 7 6 7 10 8 16 14 17 15 16 14 12 11 13 14 13 10 9 8 6 2 2 5 8 9 10 7 9
3 4 2 2 1 1 0 7 8 9 9 9 8 4 4 2 5 2 10 15 20 7 24 13 14 17 10 7 11 12 13 13 10 8 6 5 3 2 5 5 8 7 10 10
1 3 4 4 2 2 3 9 10 11 10 8 8 10 9 4 3 2 7 17 19 14 13 10 9 10 10 11 10 11 13 14 11 6 2 3 4 7 8 8 9 14 12 14
3 4 2 1 4 3 5 9 10 11 9 11 11 12 11 7 6 9 15 25 32 29 17 10 10 10 9 9 11 10 9 10 8 4 2 4 5 4 2 1 6 11 13 12
4 4 2 5 3 4 5 5 8 9 11 13 9 11 10 10 8 10 12 9 20 24 23 19 16 14 12 10 8 9 9 9 6 3 5 8 9 6 5 5 6 9 9 12
3 1 5 8 5 4 4 5 5 9 10 9 12 9 5 3 6 8 10 14 16 20 28 23 20 20 15 13 10 7 10 6 3 4 8 9 8 8 5 5 8 10 13 14
2 2 4 3 2 4 6 11 10 9 9 11 12 15 16 7 19 21 21 10 12 12 19 23 14 11 9 8 7 5 5 4 4 5 5 6 8 11 11 8 11 16 12 13
7 7 6 4 6 5 8 9 7 6 7 10 14 11 13 11 11 18 20 17 15 12 10 12 12 11 2 7 5 4 4 5 7 8 10 9 12 11 10 12 13 16 19 18
5 6 5 5 7 7 7 6 4 4 5 6 7 10 10 10 10 17 20 17 18 13 12 17 18 14 15 10 1 5 8 11 13 15 15 15 16 15 14 15 16 17 18 18
4 6 3 2 2 3 4 5 4 2 4 7 7 10 14 13 18 17 23 21 19 20 19 16 13 14 14 11 9 7 7 7 8 11 15 20 21 19 18 18 17 19 20 19
1 3 3 3 3 5 6 8 12 14 11 12 17 17 16 15 11 13 12 11 13 15 16 13 11 10 9 8 7 7 8 8 8 9 10 13 18 19 20 18 21 20 21 20
3 5 5 4 5 8 5 10 11 14 12 14 15 13 13 11 10 9 8 11 12 12 16 15 12 12 10 10 11 9 9 11 12 12 12 14 16 16 18 18 18 17 17 16
8 5 13 13 14 13 11 12 11 9 9 11 11 10 11 11 8 8 10 15 13 11 12 14 15 16 16 14 12 12 11 9 11 14 15 15 14 14 13 11 9 10 10 13
9 12 7 11 12 14 13 10 11 12 10 9 9 8 8 7 8 8 11 10 13 13 13 12 12 13 15 15 17 16 14 12 10 11 10 9 8 9 9 10 10 10 10 13
11 7 5 4 10 12 12 12 11 10 9 9 9 8 10 10 10 11 13 11 10 11 12 15 12 12 13 15 16 15 16 16 14 16 16 15 16 16 16 17 17 16 17 17
2 1 2 2 5 10 12 11 10 10 10 10 9 10 10 10 8 6 5 11 10 10 11 15 14 12 16 20 20 20 22 22 22 21 22 23 22 21 20 21 20 19 18 18
3 1 1 7 11 12 9 8 9 10 10 9 9 8 8 7 10 10 10 12 12 12 14 14 16 17 19 21 18 20 21 18 16 16 16 16 15 15 15 16 16 16 17 17
2 3 6 10 10 10 13 11 10 8 8 8 7 7 9 9 9 9 13 14 13 14 16 15 17 17 15 12 14 15 15 15 15 18 19 21 20 19 19 17 15 14 13 13
2 3 4 4 8 14 13 11 11 9 9 10 9 7 8 9 10 10 12 12 11 13 15 15 15 14 16 17 14 15 15 14 14 14 13 14 14 13 12 12 12 15 16 17
2 2 4 6 8 11 10 8 8 8 7 7 8 7 8 9 10 9 7 6 7 9 9 9 10 9 9 9 10 10 10 8 6 7 7 8 7 8 9 10 10 9 11 13
Wind_Direction
261 262 257 150 165 182 176 162 140 236 213 260 248 225 218 226 161 160 232 239 216 207 200 190 193 188 187 196 196 196 195 198 196 196 196 200 209 202 205 209 205 214 227 228
3 344 355 311 176 193 253 120 344 328 270 228 274 264 229 221 165 174 199 209 221 217 188 191 187 186 190 192 189 191 194 197 192 199 211 213 216 213 207 208 213 224 218 222
255 335 15 342 286 195 145 142 141 183 242 332 284 245 250 234 186 197 197 201 205 200 191 188 189 184 189 190 188 191 190 195 196 199 213 218 230 216 216 218 218 219 231 231
235 340 195 235 21 70 100 42 3 328 336 324 286 280 261 210 199 203 201 202 208 190 172 188 182 184 181 189 188 189 190 200 209 218 221 232 239 228 231 224 222 225 222 225
165 198 281 54 21 24 37 82 13 323 331 316 324 321 322 275 285 259 222 215 224 198 178 175 174 174 177 176 185 196 195 200 220 222 228 231 213 222 242 228 242 236 227 229
135 162 213 299 306 325 284 269 2 340 342 338 347 2 292 337 316 250 232 221 179 172 175 172 170 174 171 180 183 191 191 197 210 212 207 179 167 193 219 233 238 254 246 243
180 207 292 281 308 311 160 268 314 301 306 351 356 234 299 321 343 5 17 97 164 176 181 176 170 174 172 175 179 173 168 169 171 176 181 162 170 182 223 221 215 238 232 209
81 169 197 349 345 92 231 308 276 289 274 277 254 277 321 332 1 11 29 38 137 138 145 155 162 164 163 165 158 159 154 146 150 156 150 140 155 221 237 222 190 210 222 240
183 204 234 288 111 265 50 267 289 307 293 301 286 270 284 326 355 6 91 71 46 327 127 141 169 149 148 155 150 150 142 140 141 130 114 111 105 284 250 228 220 204 207 230
37 243 244 220 253 230 257 261 277 281 286 299 295 293 284 221 150 104 91 90 101 331 58 96 102 112 142 157 158 159 151 146 124 110 64 305 304 277 270 266 263 247 233 236
275 303 8 230 240 282 299 293 275 273 281 274 283 279 271 270 230 168 170 142 146 169 180 179 152 152 165 182 179 171 154 125 110 106 220 265 250 256 268 305 296 284 279 270
220 240 204 247 256 293 312 307 311 313 305 301 277 264 264 269 255 219 178 178 154 150 148 153 158 172 173 180 182 173 128 103 111 169 227 240 252 265 282 307 331 332 316 289
224 163 230 266 275 264 293 302 322 331 323 313 334 355 341 318 341 232 142 137 143 151 150 159 165 159 159 150 159 138 104 113 129 230 240 249 263 268 284 308 308 312 313 315
245 234 286 230 262 287 293 299 310 311 336 349 344 349 4 42 46 51 31 59 101 120 133 138 181 141 151 165 170 146 126 139 199 231 248 261 269 281 292 297 307 309 315 313
256 221 248 315 318 291 288 297 327 347 0 1 356 21 28 14 44 75 70 75 77 86 117 131 107 73 152 214 213 222 228 240 256 270 280 289 287 287 294 300 297 295 302 302
278 268 282 267 281 298 282 291 311 348 9 12 13 27 56 61 61 70 82 89 86 68 67 76 72 65 69 69 103 257 270 277 274 272 275 277 279 283 293 297 295 294 298 300
287 329 336 311 282 14 9 358 354 15 34 43 44 54 60 57 67 75 90 95 93 85 81 72 57 48 52 52 49 28 354 332 308 282 271 272 274 275 278 282 282 288 296 304
163 83 80 109 106 64 50 35 55 62 64 68 83 78 66 66 66 65 58 62 68 57 51 39 28 18 12 8 9 358 339 333 340 336 325 298 282 279 277 275 280 281 293 308
189 106 110 90 85 93 81 79 63 88 95 96 85 76 82 78 76 83 69 57 43 32 9 5 4 350 346 331 317 300 301 311 317 323 322 318 310 292 278 273 274 279 298 313
17 90 103 98 101 102 94 103 119 104 100 97 95 77 64 53 58 65 45 43 23 8 7 19 23 17 7 1 343 325 320 323 327 325 319 313 320 321 308 309 311 312 326 339
43 360 70 106 112 116 113 114 110 92 85 82 87 91 86 66 54 57 58 50 28 26 27 24 25 18 16 24 27 18 16 12 7 3 359 360 4 22 34 35 38 22 13 17
52 16 350 97 124 115 121 124 115 106 92 84 82 85 85 74 89 76 63 58 51 37 32 29 28 19 21 34 43 48 48 46 43 50 56 61 65 65 59 58 57 54 47 45
94 58 0 218 142 121 119 113 103 95 81 68 68 84 86 87 83 72 60 39 45 34 43 40 40 45 58 59 60 63 65 65 63 69 72 74 76 75 74 72 68 63 55 47
61 9 148 151 143 133 107 103 97 92 92 90 73 66 91 88 63 61 65 63 61 59 61 57 59 59 65 67 67 69 66 62 60 62 63 68 68 68 68 67 63 56 54 53
89 85 128 150 160 150 140 132 116 112 105 101 93 81 80 79 88 75 77 70 66 63 63 63 58 57 61 67 63 63 69 65 68 70 68 68 68 67 68 66 55 40 27 18
44 80 99 126 163 159 154 155 134 122 116 105 90 88 84 80 75 72 70 69 68 69 69 67 65 63 62 64 69 75 82 88 82 71 65 62 59 55 50 45 40 43 42 40
360 107 127 114 144 159 169 160 147 137 118 102 102 99 89 85 85 83 84 87 78 70 63 64 68 71 80 79 75 77 84 89 82 63 52 46 43 40 34 30 31 37 38 26